Regional Weather Roundup
Issued by NWS

Home | Current Version | Previous Version | Text Only | Print | Product List | Glossary On
Versions: 1 2 3 4 5 6 7 8 9 10 11 12 13 14 15 16 17 18 19 20 21 22 23 24 25 26 27 28 29 30 31 32 33 34 35 36 37 38 39 40 41 42 43 44 45 46 47 48 49 50
000
ASUS43 KDTX 210110
RWRMI
MICHIGAN HOURLY REGIONAL WEATHER ROUNDUP
NATIONAL WEATHER SERVICE DETROIT/PONTIAC MI
900 PM EDT SUN APR 20 2014

NOTE: "FAIR" INDICATES FEW OR NO CLOUDS BELOW 12,000 FEET WITH NO
SIGNIFICANT WEATHER AND/OR OBSTRUCTION TO VISIBILITY.

MIZ047>049-052>055-059>063-066>070-074>076-081>083-210200-
SOUTHEAST LOWER MICHIGAN

CITY           SKY/WX    TMP DP  RH WIND       PRES   REMARKS
ADRIAN         MOCLDY    63  33  32 SE3       30.12F
ALMA           CLOUDY    63  37  36 S5        30.09S
ANN ARBOR      MOCLDY    62  37  39 S6        30.12F
BAD AXE        PTCLDY    60  38  44 CALM      30.10F
CARO           PTCLDY    63  30  28 CALM      30.09F
DETROIT CITY   MOCLDY    65  37  35 S7        30.13S
DETROIT        MOCLDY    58  37  45 SE8       30.14S
FLINT          PTCLDY    66  22  18 S5        30.10F
GROSSE ILE     PTCLDY    50  43  76 CALM      30.12S
HILLSDALE      PTCLDY    66  29  24 CALM      30.12S
HOWELL         PTCLDY    64  21  19 S5        30.10F

CITY           SKY/WX    TMP DP  RH WIND       PRES   REMARKS
JACKSON        PTCLDY    65  26  23 S5        30.11F
LAMBERTVILLE   MOCLDY    55  37  50 CALM      30.14S
LANSING        CLEAR     64  28  25 S3        30.11S
LAPEER         FAIR      58  28  31 SE5       30.11S
MASON          PTCLDY    62  31  30 CALM      30.11S
MONROE         MOCLDY    54  37  54 CALM      30.13S
MT. CLEMENS    CLOUDY    56  41  57 S8        30.12R
PONTIAC        CLOUDY    66  25  21 S5        30.11F
PORT HOPE        N/A     53  38  56 CALM      30.08F
PORT HURON     MOCLDY    59  41  51 S6        30.13F
TRI CITIES     MOCLDY    68  33  27 S6        30.09F
TROY           MOCLDY    66  32  28 S8        30.13S
SAGINAW HB     PTCLDY    63  34  34 S6        30.09S
YPSILANTI      MOCLDY    58  37  45 S7        30.13S
$$
MIZ043>046-050>051-056>058-064>065-071>073-077>080-210200-
SOUTHWEST LOWER MICHIGAN

CITY           SKY/WX    TMP DP  RH WIND       PRES   REMARKS
BATTLE CREEK   PTCLDY    64  29  26 S5        30.11F
BENTON HARBOR  PTCLDY    62  37  39 CALM      30.08F
BIG RAPIDS     MOCLDY    65  37  35 CALM      30.07S
COLDWATER      PTCLDY    60  30  32 CALM      30.11S
FREMONT        FAIR      64  33  31 S3        30.06F
HOLLAND        PTCLDY    63  39  41 SE3       30.09F
GRAND RAPIDS   PTCLDY    66  34  30 SW6       30.09S
IONIA          FAIR      64  32  30 S7        30.09S
KALAMAZOO      PTCLDY    65  30  27 S6        30.11S
LUDINGTON      CLOUDY    63  35  35 CALM      30.05F
MARSHALL       PTCLDY    64  29  27 CALM      30.11R
MOUNT PLEASANT CLOUDY    67  33  28 CALM      30.08S
MUSKEGON       MOCLDY    64  34  32 S8        30.06F
SOUTH HAVEN    PTCLDY    62  36  38 CALM      30.08F
$$
MIZ016>042-210200-
NORTHERN LOWER MICHIGAN

CITY           SKY/WX    TMP DP  RH WIND       PRES   REMARKS
ALPENA         CLOUDY    47  37  68 SE6       30.05F
BEAVER ISLAND  CLOUDY    41  35  79 W8        30.06R
BELLAIRE       CLOUDY    54  42  64 CALM      30.05S
CADILLAC       CLOUDY    60  41  49 SW3       30.07S
CHARLEVOIX     CLOUDY    44  36  74 CALM      30.08S
FRANKFORT      DRIZZLE   58  39  48 SW7       30.06S
GAYLORD        CLOUDY    55  40  56 W5        30.06S
GRAYLING       CLOUDY    59  38  45 CALM      30.08R
HARBOR SPRINGS CLOUDY    41  35  78 CALM      30.06S
HOUGHTON LAKE  CLOUDY    63  37  38 SW12      30.08R
MANISTEE       CLOUDY    61  39  44 E3        30.06F
OSCODA         CLOUDY    58  29  32 S3        30.07S
PELLSTON       CLOUDY    47  43  86 N6        30.07R
ROGERS CITY    CLOUDY    50  45  83 CALM      30.06S
TRAVERSE CITY  CLOUDY    59  41  51 CALM      30.04S
$$
MIZ007>008-015-210200-
EASTERN UPPER MICHIGAN

CITY           SKY/WX    TMP DP  RH WIND       PRES   REMARKS
KINROSS        CLOUDY    37  37 100 CALM      30.08R
MACKINAC ISLAN LGT RAIN  39  39  99 SW6       30.07S WCI  35
NEWBERRY       CLOUDY    38  35  91 S3        30.04S
S. S. MARIE    CLOUDY    38  37  97 E5        30.08R FOG     WCI  34
MUNISING         N/A     47  39  74 S5        30.02R
$$
MIZ004>006-011>014-085-210200-
CENTRAL UPPER MICHIGAN

CITY           SKY/WX    TMP DP  RH WIND       PRES   REMARKS
MANISTIQUE     CLOUDY    37  35  91 MISG      30.03F
ESCANABA       CLOUDY    41  36  81 S5        30.01F
MENOMINEE      CLOUDY    50  46  87 SW5       30.01F
SAWYER-GWINN   CLEAR     52  45  76 CALM      30.02R
$$
MIZ001>003-009>011-084-210200-
WESTERN UPPER MICHIGAN

CITY           SKY/WX    TMP DP  RH WIND       PRES   REMARKS
IRON MOUNTAIN  MOCLDY    54  49  83 S5        29.98S
HOUGHTON       CLEAR     44  35  70 CALM      30.00S
COPPER HARBOR    N/A     37  32  82 CALM      30.00S
IRONWOOD       CLEAR     55  27  33 N3        29.98R
$$

ABBREVIATIONS USED IN REMARKS
   TC - TEMPERATURE IN CELSIUS
  WCI - WIND CHILL INDEX
   HX - HEAT INDEX
  VSB - VISIBILITY




USA.gov is the U.S. government's official web portal to all federal, state and local government web resources and services.